カタログに戻る

STARLINK-37965

運用中通信SSO
NORAD 69753·PAYLOAD·🇺🇸 United States

打ち上げ Jul 2, 2026 から Vandenberg Space Force Base

Loading…

次のパス (今後24時間)

TLE

最新Source: CelesTrak SupGP

元期: Sep 15, 2026, 04:02 UTC

1 69753C 26150Q   26258.16854167 -.00051579  00000+0 -16011-2 0  2582
2 69753  97.2846  97.2099 0001800  90.7651 186.9961 15.33466208    10

AllMySatでSTARLINK-37965をリアルタイム追跡

Download on the App Store